sat.trackr.live / text

‹ back to catalog

HAWK-13C

NORAD 67393 · 2026-004AG

PAYLOAD ACTIVE UNKNOWN

§ Identity

Operator
Country
US
Launch date
2026-01-11
Launch site
AFWTR
Launch vehicle
Mass (kg)
RCS (m²)

External: N2YO · Heavens-Above · Gunter

§ Orbital elements

Epoch: 2026-09-20T22:41:39.889248Z

Period
94.75 min
Inclination
97.4654°
Eccentricity
0.0005807
Mean motion
15.19806188 rev/d
Perigee alt
502.4 km
Apogee alt
510.4 km
Semi-major
6,884.6 km
B*
1.3023e-4
RAAN
262.0711°
Arg perigee
21.5220°
Mean anomaly
338.6257°
Rev number
3,830

§ Raw data

HAWK-13C1 67393U 26004AG  26263.94560057  .00002721  00000+0  13023-3 0  99982 67393  97.4654 262.0711 0005807  21.5220 338.6257 15.19806188 38301

JSON: /api/v1/satellites/67393 · /tle

For live sub-satellite position, see the globe view (requires WebGL).

§ Visibility from observer

Set your observer location to see the next 7 days of passes ≥ 10°. The values pass through the URL so the page stays shareable.

No JS? Fill the form by hand. The geolocation button needs JavaScript.